[[{"header":{"parameterUnit":"m.s-1","parameterCategory":1,"la1":30.2992,"la2":30.254,"lo1":-89.0895,"lo2":-89.0443,"dy":0.0025,"dx":0.0025,"nx":19,"ny":19,"refTime":"2026-05-22T03:00:00:Z","depth":0,"parameterNumber":2,"parameterNumberName":"U-component_of_WINDS"},"data":[0,0,0,-3.0205,-3.0203,-3.0046,-3.0045,-2.9868,-2.9867,0,0,0,0,0,0,0,0,0,0,0,-3.0269,-3.0269,-3.0206,-3.0202,-3.0046,-3.0045,-2.9869,-2.9867,0,0,0,0,0,0,0,0,0,0,0,-3.027,-3.0269,-3.0268,-3.0202,-3.0046,-3.0045,-2.9869,-2.9978,0,0,0,0,0,0,0,0,0,0,-3.0125,-3.0202,-3.0269,-3.0268,-3.0201,-3.0047,-3.0045,-2.9983,-2.9971,-2.995,0,-2.994,0,-2.9902,-2.9857,-2.9857,0,0,0,-3.0188,-3.0212,-3.0155,-3.0268,-3.02,-3.0047,-3.0113,-2.9976,-2.9963,-2.9935,-2.9937,-2.993,-2.9899,-2.9856,-2.9855,-2.9794,-2.9794,0,0,-3.0197,-3.0249,-3.0164,-3.0147,-3.0177,-3.0118,-3.0108,-2.9968,-2.9972,-2.9937,-2.9925,-2.9896,-2.9855,-2.9854,-2.9793,-2.9794,0,0,0,-3.0231,-3.0256,-3.0201,-3.0155,-3.0126,-3.0114,-3.0102,-2.9978,-2.9956,-2.9923,-2.9894,-2.9854,-2.9853,-2.9793,-2.9793,-2.9864,0,0,0,-3.0236,-3.0276,-3.0206,-3.0237,-3.0129,-3.0051,-3.0116,-2.9966,-2.9948,-2.9894,-2.9854,-2.9851,-2.9792,-2.9793,-2.9861,-2.9887,0,0,0,-3.0273,-3.028,-3.0264,-3.024,-3.0175,-3.0052,-3.0021,-2.9961,-2.9931,-2.9857,-2.9851,-2.9792,-2.9793,-2.9858,-2.9882,-2.9885,0,0,0,-3.0328,-3.0327,-3.0267,-3.0254,-3.0177,-3.0099,-3.0021,-2.9959,-2.9904,-2.9854,-2.9792,-2.9793,-2.9858,-2.9879,-2.9883,-2.9895,-2.9906,0,0,-3.0356,-3.0333,-3.0321,-3.0262,-3.0209,-3.0118,-3.0073,-2.9971,-2.9913,-2.9836,-2.9834,-2.9862,-2.9882,-2.9884,-2.9956,-2.9965,0,0,0,-3.0348,-3.0341,-3.0315,-3.0268,-3.0193,-3.0129,-3.0029,-2.9992,-2.9924,-2.9886,-2.9864,-2.9874,-2.9873,-2.9876,-2.9884,-2.9878,-2.9798,-2.9798,-2.9798,-3.0461,-3.0392,-3.0368,-3.0281,-3.0236,-3.0135,-3.009,-3.0021,-2.9962,-2.9958,-2.9933,-2.9985,-2.9991,-2.9997,-2.9992,-2.9937,-2.9937,-2.9937,-2.9937,-3.0494,-3.0471,-3.0397,-3.0347,-3.0273,-3.0229,-3.0132,-3.0092,-3.0038,-2.9998,-2.9993,-2.9953,-3.0009,-3.0001,-2.9942,-2.9941,-2.9941,-2.994,-2.994,-3.0557,-3.0534,-3.0492,-3.0418,-3.0367,-3.0278,-3.0231,-3.0165,-3.0102,-3.0098,-3.0063,-3.0062,-3.005,-3.0087,-3.0088,-3.0088,-3.0088,-3.0088,-3.0088,-3.0638,-3.0589,-3.0559,-3.0482,-3.0444,-3.0384,-3.0285,-3.0244,-3.0181,-3.0136,-3.0135,-3.0075,-3.003,-3.0018,-3.009,-3.009,-3.009,-3.0089,-3.0089,-3.0691,-3.067,-3.0624,-3.0586,-3.049,-3.0445,-3.0363,-3.0286,-3.0242,-3.0221,-3.0163,-3.0142,-3.0111,-3.0104,-3.0093,-3.018,-3.018,-3.018,-3.018,-3.0742,-3.0723,-3.0661,-3.0605,-3.0542,-3.0465,-3.0412,-3.0336,-3.0252,-3.022,-3.0199,-3.018,-3.0177,-3.0147,-3.014,-3.0128,-3.0223,-3.0223,-3.0223,-3.077,-3.0742,-3.0711,-3.0633,-3.0554,-3.0487,-3.0435,-3.037,-3.027,-3.0223,-3.0193,-3.0191,-3.0161,-3.0155,-3.0103,-3.0092,-3.007,0,0]},{"header":{"parameterUnit":"m.s-1","parameterCategory":1,"la1":30.2992,"la2":30.254,"lo1":-89.0895,"lo2":-89.0443,"dy":0.0025,"dx":0.0025,"nx":19,"ny":19,"refTime":"2026-05-22T03:00:00:Z","depth":0,"parameterNumber":3,"parameterNumberName":"V-component_of_WINDS"},"data":[0,0,0,4.4266,4.4268,4.4332,4.4332,4.4411,4.4411,0,0,0,0,0,0,0,0,0,0,0,4.4248,4.4249,4.4266,4.4268,4.4332,4.4332,4.441,4.4411,0,0,0,0,0,0,0,0,0,0,0,4.4248,4.4249,4.4249,4.4268,4.4332,4.4332,4.441,4.4363,0,0,0,0,0,0,0,0,0,0,4.4301,4.4285,4.4248,4.4249,4.4269,4.4331,4.4332,4.436,4.4366,4.4381,0,4.4397,0,4.4406,4.4417,4.4417,0,0,0,4.4267,4.4281,4.4298,4.4249,4.4269,4.4331,4.4303,4.4363,4.4369,4.4388,4.4398,4.4401,4.4407,4.4417,4.4418,4.4514,4.4515,0,0,4.4264,4.426,4.4294,4.4302,4.4294,4.4301,4.4305,4.4367,4.4377,4.4399,4.4403,4.4408,4.4418,4.4418,4.4514,4.4515,0,0,0,4.4254,4.4257,4.4272,4.4298,4.431,4.4302,4.4307,4.4374,4.438,4.4404,4.4409,4.4418,4.4419,4.4513,4.4514,4.4537,0,0,0,4.4252,4.4252,4.4271,4.4269,4.4309,4.4344,4.4313,4.4375,4.4382,4.4409,4.4418,4.442,4.4513,4.4514,4.4535,4.4548,0,0,0,4.4244,4.4251,4.426,4.4269,4.4296,4.4343,4.4352,4.4377,4.4386,4.4417,4.442,4.4513,4.4514,4.4533,4.4546,4.4574,0,0,0,4.4233,4.4278,4.426,4.4312,4.4296,4.4356,4.4351,4.4396,4.4425,4.4419,4.4513,4.4514,4.4533,4.4544,4.4572,4.4598,4.4608,0,0,4.4288,4.4285,4.4315,4.4301,4.4364,4.4346,4.4412,4.4441,4.4447,4.4491,4.4493,4.4535,4.4545,4.4573,4.4662,4.467,0,0,0,4.4331,4.4353,4.4371,4.4399,4.4423,4.4445,4.4465,4.4476,4.4514,4.4469,4.4552,4.4558,4.4575,4.4587,4.4594,4.4609,4.4519,4.4519,4.4519,4.4404,4.4409,4.446,4.4472,4.4499,4.4519,4.4541,4.4558,4.4555,4.4574,4.4588,4.4642,4.4656,4.4662,4.4677,4.46,4.46,4.4601,4.4601,4.4486,4.4519,4.4512,4.4559,4.4563,4.4602,4.4621,4.4617,4.4653,4.4632,4.4646,4.4625,4.467,4.4684,4.4602,4.4602,4.4602,4.4602,4.4602,4.4536,4.4553,4.4565,4.4606,4.4636,4.4645,4.468,4.4681,4.4682,4.4697,4.4712,4.4712,4.4713,4.4703,4.4703,4.4704,4.4704,4.4704,4.4704,4.4585,4.4598,4.4628,4.4656,4.4674,4.4697,4.4715,4.4732,4.475,4.4749,4.4749,4.4744,4.4673,4.4657,4.4707,4.4707,4.4706,4.4706,4.4706,4.4671,4.4651,4.4698,4.4716,4.4748,4.4777,4.4777,4.4811,4.4824,4.4841,4.4831,4.4779,4.4775,4.477,4.4757,4.483,4.483,4.483,4.483,4.4716,4.4713,4.4761,4.4789,4.4816,4.482,4.4871,4.4884,4.4894,4.4902,4.4891,4.4872,4.4866,4.4866,4.4859,4.4846,4.4941,4.4941,4.4941,4.4769,4.4769,4.4814,4.4824,4.4848,4.4868,4.4916,4.4946,4.4953,4.4945,4.4909,4.4904,4.4874,4.4863,4.4858,4.4847,4.4824,0,0]}]]